Location: Hylvaty SDH
(49.9612°N, 16.4057°E)
Time: 12:42:11
(UTC+01:00)

A-11 Canister half - Pass Details

Date: 11 October 2020
Orbit: 1526 x 1683 km, 47.3° (Epoch: 28 October)

Event Time Altitude Azimuth Distance (km) Brightness Sun altitude
Rises 02:55:23 0° 288° (WNW) 4,697 - -38.8°
Reaches altitude 10° 02:58:55 10° 278° (W) 3,726 - -38.4°
Maximum altitude 03:06:30 29° 224° (SW) 2,586 - -37.5°
Drops below altitude 10° 03:14:16 10° 169° (S) 3,804 - -36.6°
Sets 03:17:56 0° 159° (SSE) 4,812 - -36.1°
